Date String (YYYY-MM-DD hh:mm:ss) UTC,Instrument flags,absolute air pressure of the measurement (hPa),sample flow rate (lpm),inlet stack bypass flow (lpm),air temperature of the measurement (°C),ambient temperature measured by the external sensor (°C),aerosol sample conditioner tube jacket temperature (°C),OPC LED temperature (°C),internal box temperature (°C),relative humidity of the measurement (%),span deviation,mass concentration of particles derived from Lorenz-Mie calculation of OPC scattering (μg/m³),mass concentration of particles derived from Lorenz-Mie calculation of OPC scattering (μg/m³),mass concentration of particles derived from Lorenz-Mie calculation of OPC scattering (μg/m³)
DateTimeUTC,F1_M11,P_M11,Q1_M11,Q2_M11,T1_M11,T2_M11,T3_M11,T4_M11,T5_M11,U1_M11,ZSPAN_M11,X2_M11,X0_M11,X1_M11
2023-07-17 01:00:00,SystemResetWarning,0833.2,4.99,000.00,028.9,026.1,000.0,037.0,030.4,27.9,0000.6,0008.21,0015.82,0007.53
2023-07-17 01:01:00,SystemResetWarning,0833.2,5.00,000.00,028.8,024.8,000.0,036.9,030.2,28.4,0000.2,0008.21,0015.51,0007.54
2023-07-17 01:02:00,SystemResetWarning,0833.2,5.01,000.00,028.7,024.9,000.0,036.9,030.1,28.5,0000.1,0008.23,0015.26,0007.55
2023-07-17 01:03:00,SystemResetWarning,0833.2,5.00,000.00,028.6,025.2,000.0,036.9,030.0,28.4,0000.2,0008.28,0015.18,0007.55
2023-07-17 01:04:00,SystemResetWarning,0833.1,5.00,000.00,028.6,025.8,000.0,037.0,030.1,28.2,0000.3,0008.28,0014.96,0007.54
2023-07-17 01:05:00,SystemResetWarning,0833.2,5.00,000.00,028.7,026.3,000.0,037.0,030.2,28.8,0000.1,0008.29,0015.10,0007.54
2023-07-17 01:06:00,SystemResetWarning,0833.2,5.00,000.00,028.7,026.7,000.0,037.0,030.3,29.1,-000.1,0008.31,0016.24,0007.52
2023-07-17 01:07:00,SystemResetWarning,0833.2,5.00,000.00,028.8,027.1,000.0,037.0,030.5,29.0,0000.2,0008.35,0016.31,0007.54
2023-07-17 01:08:00,SystemResetWarning,0833.2,5.00,000.00,028.8,027.4,000.0,037.1,030.5,28.3,0000.2,0008.39,0016.31,0007.58
2023-07-17 01:09:00,SystemResetWarning,0833.2,5.00,000.00,028.9,027.7,000.0,037.1,030.6,28.9,0000.2,0008.44,0016.28,0007.62
2023-07-17 01:10:00,SystemResetWarning,0833.2,5.00,000.00,028.9,027.4,000.0,037.1,030.7,28.7,0000.2,0008.52,0015.69,0007.64
2023-07-17 01:11:00,SystemResetWarning,0833.2,5.00,000.00,028.9,025.7,000.0,037.0,030.4,28.7,0000.5,0008.53,0016.43,0007.65
2023-07-17 01:12:00,SystemResetWarning,0833.2,5.00,000.00,028.8,024.9,000.0,036.9,030.3,29.2,0000.7,0008.57,0017.20,0007.67
2023-07-17 01:13:00,SystemResetWarning,0833.2,5.01,000.00,028.7,025.0,000.0,036.9,030.1,29.2,0000.9,0008.57,0017.56,0007.68
2023-07-17 01:14:00,SystemResetWarning,0833.2,5.00,000.00,028.7,025.5,000.0,037.0,030.1,29.6,0000.8,0008.59,0017.71,0007.71
2023-07-17 01:15:00,SystemResetWarning,0833.2,4.99,000.00,028.7,026.0,000.0,037.0,030.2,29.7,0000.6,0008.66,0018.22,0007.77
2023-07-17 01:16:00,SystemResetWarning,0833.2,5.00,000.00,028.7,026.4,000.0,037.0,030.3,30.0,0000.6,0008.73,0019.10,0007.81
2023-07-17 01:17:00,SystemResetWarning,0833.2,5.01,000.00,028.8,026.8,000.0,037.1,030.4,30.0,0000.6,0008.79,0019.90,0007.85
2023-07-17 01:18:00,SystemResetWarning,0833.2,4.99,000.00,028.8,027.2,000.0,037.1,030.5,29.6,0000.2,0008.82,0019.68,0007.86
2023-07-17 01:19:00,SystemResetWarning,0833.2,5.00,000.00,028.9,027.6,000.0,037.1,030.6,29.2,0000.2,0008.88,0019.80,0007.87
2023-07-17 01:20:00,SystemResetWarning,0833.2,4.99,000.00,028.9,027.5,000.0,037.1,030.7,29.1,0000.0,0008.92,0020.25,0007.87
2023-07-17 01:21:00,SystemResetWarning,0833.2,4.99,000.00,028.9,025.9,000.0,037.0,030.4,29.1,0000.2,0008.94,0021.23,0007.87
2023-07-17 01:22:00,SystemResetWarning,0833.2,5.00,000.00,028.8,024.9,000.0,036.9,030.2,29.3,-000.0,0008.99,0021.26,0007.87
2023-07-17 01:23:00,SystemResetWarning,0833.2,5.01,000.00,028.7,025.0,000.0,036.9,030.1,29.4,-000.0,0009.03,0022.09,0007.89
2023-07-17 01:24:00,SystemResetWarning,0833.2,5.01,000.00,028.7,025.3,000.0,037.0,030.1,29.4,-000.2,0009.11,0023.40,0007.91
2023-07-17 01:25:00,SystemResetWarning,0833.2,5.00,000.00,028.7,025.8,000.0,037.0,030.2,28.9,-000.2,0009.14,0024.76,0007.93
2023-07-17 01:26:00,SystemResetWarning,0833.2,5.00,000.00,028.7,026.3,000.0,037.0,030.3,28.7,-000.2,0009.14,0024.48,0007.94
2023-07-17 01:27:00,SystemResetWarning,0833.2,5.00,000.00,028.7,026.7,000.0,037.1,030.4,28.5,-000.1,0009.15,0023.96,0007.93
2023-07-17 01:28:00,SystemResetWarning,0833.2,5.00,000.00,028.8,027.1,000.0,037.1,030.5,28.1,-000.1,0009.17,0022.42,0007.93
2023-07-17 01:29:00,SystemResetWarning,0833.2,5.00,000.00,028.9,027.5,000.0,037.1,030.6,27.7,0000.3,0009.17,0022.06,0007.94
2023-07-17 01:30:00,SystemResetWarning,0833.2,5.00,000.00,028.9,027.7,000.0,037.2,030.7,28.0,0000.3,0009.16,0022.37,0007.94
2023-07-17 01:31:00,SystemResetWarning,0833.2,4.98,000.00,028.9,027.1,000.0,037.1,030.6,28.0,0000.6,0009.14,0021.92,0007.96
2023-07-17 01:32:00,SystemResetWarning,0833.2,5.01,000.00,028.9,025.4,000.0,037.0,030.3,28.0,0000.5,0009.15,0021.76,0007.97
2023-07-17 01:33:00,SystemResetWarning,0833.1,5.01,000.00,028.8,024.8,000.0,036.9,030.2,28.2,0000.4,0009.12,0020.92,0007.99
2023-07-17 01:34:00,SystemResetWarning,0833.0,5.01,000.00,028.7,025.1,000.0,037.0,030.1,28.1,0000.3,0009.08,0019.79,0008.00
2023-07-17 01:35:00,SystemResetWarning,0833.1,5.00,000.00,028.7,025.5,000.0,037.0,030.1,28.2,0000.6,0009.03,0018.15,0008.01
2023-07-17 01:36:00,SystemResetWarning,0833.2,5.00,000.00,028.7,026.0,000.0,037.0,030.2,28.3,0000.9,0009.00,0016.53,0008.01
2023-07-17 01:37:00,SystemResetWarning,0833.2,4.99,000.00,028.7,026.4,000.0,037.1,030.3,28.8,0001.0,0008.95,0016.75,0007.99
2023-07-17 01:38:00,SystemResetWarning,0833.2,5.00,000.00,028.8,026.9,000.0,037.1,030.4,28.9,0001.1,0008.91,0016.48,0008.00
2023-07-17 01:39:00,SystemResetWarning,0833.2,5.01,000.00,028.8,027.2,000.0,037.1,030.6,29.2,0001.3,0008.88,0016.44,0008.01
2023-07-17 01:40:00,SystemResetWarning,0833.2,4.99,000.00,028.9,027.5,000.0,037.1,030.7,29.1,0001.1,0008.88,0017.13,0008.00
2023-07-17 01:41:00,SystemResetWarning,0833.2,4.99,000.00,028.9,027.1,000.0,037.1,030.6,28.7,0001.1,0008.86,0017.41,0008.01
2023-07-17 01:42:00,SystemResetWarning,0833.2,5.01,000.00,028.9,025.5,000.0,037.0,030.3,28.8,0000.5,0008.85,0018.29,0007.98
2023-07-17 01:43:00,SystemResetWarning,0833.2,5.00,000.00,028.8,024.7,000.0,036.9,030.1,29.0,0000.5,0008.80,0017.37,0007.96
2023-07-17 01:44:00,SystemResetWarning,0833.2,5.01,000.00,028.7,024.9,000.0,036.9,030.0,29.1,0000.7,0008.77,0017.63,0007.96
2023-07-17 01:45:00,SystemResetWarning,0833.2,5.02,000.00,028.7,025.3,000.0,037.0,030.0,29.5,0000.8,0008.76,0017.80,0007.95
2023-07-17 01:46:00,SystemResetWarning,0833.2,4.99,000.00,028.7,025.8,000.0,037.0,030.1,32.1,0000.6,0008.77,0018.02,0007.93
2023-07-17 01:47:00,SystemResetWarning,0833.2,5.00,000.00,028.7,026.3,000.0,037.0,030.3,31.6,0000.5,0008.76,0018.35,0007.94
2023-07-17 01:48:00,SystemResetWarning,0833.3,5.01,000.00,028.7,026.7,000.0,037.0,030.4,32.0,0000.5,0008.76,0018.07,0007.95
2023-07-17 01:49:00,SystemResetWarning,0833.2,5.00,000.00,028.8,027.1,000.0,037.1,030.5,31.6,0000.5,0008.77,0018.05,0007.95
2023-07-17 01:50:00,SystemResetWarning,0833.2,4.99,000.00,028.8,027.5,000.0,037.1,030.6,30.9,0000.2,0008.78,0018.01,0007.96
2023-07-17 01:51:00,SystemResetWarning,0833.2,4.99,000.00,028.9,027.7,000.0,037.1,030.7,30.9,0000.1,0008.78,0018.52,0007.97
2023-07-17 01:52:00,SystemResetWarning,0833.2,5.00,000.00,028.9,026.7,000.0,037.1,030.5,29.1,-000.2,0008.79,0018.08,0007.97
2023-07-17 01:53:00,SystemResetWarning,0833.2,5.00,000.00,028.8,025.2,000.0,037.0,030.2,28.6,0000.1,0008.79,0017.22,0007.98
2023-07-17 01:54:00,SystemResetWarning,0833.1,5.00,000.00,028.8,024.8,000.0,036.9,030.1,28.8,0000.2,0008.81,0017.40,0008.01
2023-07-17 01:55:00,SystemResetWarning,0833.1,5.01,000.00,028.7,025.1,000.0,036.9,030.0,28.1,0000.1,0008.80,0017.14,0008.01
2023-07-17 01:56:00,SystemResetWarning,0833.1,5.00,000.00,028.6,025.5,000.0,037.0,030.1,28.3,0000.1,0008.83,0017.22,0008.01
2023-07-17 01:57:00,SystemResetWarning,0833.1,5.00,000.00,028.7,026.0,000.0,037.0,030.2,28.3,0000.0,0008.82,0017.02,0008.01
2023-07-17 01:58:00,SystemResetWarning,0833.2,5.00,000.00,028.7,026.5,000.0,037.0,030.3,28.1,-000.1,0008.85,0018.15,0008.00
2023-07-17 01:59:00,SystemResetWarning,0833.2,5.00,000.00,028.7,026.9,000.0,037.1,030.4,28.1,-000.1,0008.88,0018.59,0008.01
